Location: Salerno
(40.6830°N, 14.7830°E)
Time: 23:41:40
(UTC+01:00)

ISS - Visible Passes

Search period start: 18 January 2019 00:00
Search period end: 28 January 2019 00:00
Orbit: 404 x 410 km, 51.6° (Epoch: 18 January)

Date Brightness Start Highest point End Pass type
(mag) Time Alt. Az. Time Alt. Az. Time Alt. Az.
20 Jan -0.7 19:34:34 10° SW 19:34:50 12° SW 19:34:50 12° SW visible
21 Jan -2.7 18:43:31 10° SSW 18:46:01 33° SSE 18:46:01 33° SSE visible
22 Jan -2.0 17:52:56 10° S 17:55:20 19° SE 17:57:08 13° E visible
22 Jan -1.3 19:28:25 10° WSW 19:29:52 23° W 19:29:52 23° W visible
23 Jan -3.9 18:36:55 10° SW 18:40:12 87° NW 18:40:53 54° NE visible
24 Jan -3.4 17:45:40 10° SSW 17:48:51 48° SE 17:51:48 12° ENE visible
24 Jan -1.5 19:22:43 10° W 19:24:32 22° NW 19:24:32 22° NW visible
25 Jan -2.7 18:30:52 10° W 18:33:58 38° NNW 18:35:23 25° NNE visible
26 Jan -3.5 17:39:12 10° WSW 17:42:29 66° NW 17:45:46 10° NE visible
26 Jan -1.3 19:17:16 10° WNW 19:18:52 16° NNW 19:18:52 16° NNW visible
27 Jan -1.9 18:25:12 10° WNW 18:27:51 22° NNW 18:29:36 15° NNE visible
